AEE971 LATI-LGAV

Flight info

Callsign AEE971
Flight time 0h 56m
Altitude 33000
Route ELBAK DCT ADDER DCT DIMIS UL604 YNN DCT IXONI UL53 PIKAD
Aircraft A320/M-SDE3FGHIRWY/LB1

Departure

Time 2026-05-09 04:22
Airport Tirana International Airport Mother Teresa (LATI)

Arrival

Time 2026-05-09 05:18
Airport Athens Eleftherios Venizelos International Airport (LGAV)
Time Latitude Longitude Altitude Speed Heading
2026-05-09 04:01 41.41988 19.71515 119 ft 0 kts 265°
2026-05-09 04:13 41.41989 19.71522 114 ft 2 kts 262°
2026-05-09 04:14 41.41992 19.71544 115 ft 2 kts 252°
2026-05-09 04:14 41.41998 19.71564 116 ft 2 kts 219°
2026-05-09 04:14 41.42013 19.71572 116 ft 2 kts 177°
2026-05-09 04:14 41.42020 19.71572 116 ft 0 kts 173°
2026-05-09 04:15 41.42021 19.71572 116 ft 0 kts 173°
2026-05-09 04:17 41.42013 19.71573 116 ft 3 kts 173°
2026-05-09 04:17 41.41974 19.71580 116 ft 8 kts 173°
2026-05-09 04:17 41.41905 19.71589 118 ft 12 kts 175°
2026-05-09 04:17 41.41813 19.71599 116 ft 15 kts 175°
2026-05-09 04:18 41.41710 19.71613 118 ft 15 kts 173°
2026-05-09 04:18 41.41596 19.71629 118 ft 17 kts 174°
2026-05-09 04:18 41.41471 19.71646 122 ft 19 kts 174°
2026-05-09 04:18 41.41330 19.71664 121 ft 22 kts 174°
2026-05-09 04:19 41.41191 19.71681 121 ft 20 kts 174°
2026-05-09 04:19 41.41044 19.71703 123 ft 22 kts 174°
2026-05-09 04:19 41.40900 19.71728 122 ft 21 kts 170°
2026-05-09 04:19 41.40750 19.71760 123 ft 20 kts 172°
2026-05-09 04:20 41.40617 19.71778 126 ft 19 kts 175°
2026-05-09 04:20 41.40493 19.71796 127 ft 15 kts 172°
2026-05-09 04:20 41.40384 19.71833 126 ft 17 kts 147°
2026-05-09 04:20 41.40305 19.71910 127 ft 15 kts 143°
2026-05-09 04:21 41.40243 19.72027 130 ft 17 kts 91°
2026-05-09 04:21 41.40253 19.72160 129 ft 13 kts 82°
2026-05-09 04:21 41.40430 19.72193 123 ft 27 kts 353°
2026-05-09 04:22 41.40861 19.72131 125 ft 95 kts 354°
2026-05-09 04:22 41.41704 19.72024 119 ft 146 kts 354°
2026-05-09 04:22 41.42771 19.71878 502 ft 157 kts 352°
2026-05-09 04:22 41.43863 19.71732 1111 ft 158 kts 351°
2026-05-09 04:23 41.44962 19.71589 1721 ft 159 kts 351°
2026-05-09 04:23 41.46096 19.71438 2117 ft 173 kts 351°
2026-05-09 04:23 41.47369 19.71264 2368 ft 195 kts 352°
2026-05-09 04:23 41.48802 19.71070 2611 ft 220 kts 352°
2026-05-09 04:24 41.50410 19.70855 2987 ft 244 kts 352°
2026-05-09 04:24 41.52181 19.70617 3457 ft 266 kts 353°
2026-05-09 04:24 41.54053 19.70368 4259 ft 273 kts 353°
2026-05-09 04:24 41.55951 19.70119 5188 ft 276 kts 353°
2026-05-09 04:25 41.57877 19.69869 6093 ft 279 kts 353°
2026-05-09 04:25 41.59822 19.69614 6953 ft 283 kts 352°
2026-05-09 04:25 41.61774 19.69214 7784 ft 285 kts 346°
2026-05-09 04:25 41.63687 19.68504 8636 ft 286 kts 335°
2026-05-09 04:26 41.65343 19.67060 9454 ft 286 kts 313°
2026-05-09 04:26 41.66448 19.64873 10215 ft 286 kts 289°
2026-05-09 04:26 41.66795 19.62268 10941 ft 287 kts 266°
2026-05-09 04:26 41.66333 19.59644 11403 ft 301 kts 244°
2026-05-09 04:27 41.64987 19.57387 11585 ft 325 kts 218°
2026-05-09 04:27 41.62878 19.56084 11726 ft 349 kts 191°
2026-05-09 04:27 41.60386 19.56033 11924 ft 368 kts 176°
2026-05-09 04:27 41.57806 19.56363 12458 ft 375 kts 174°
2026-05-09 04:28 41.55197 19.56789 13082 ft 380 kts 174°
2026-05-09 04:28 41.52564 19.57247 13708 ft 384 kts 174°
2026-05-09 04:28 41.49933 19.57698 14233 ft 388 kts 175°
2026-05-09 04:28 41.47200 19.58148 14766 ft 392 kts 175°
2026-05-09 04:29 41.44513 19.58571 15275 ft 396 kts 176°
2026-05-09 04:29 41.41756 19.58990 15784 ft 400 kts 176°
2026-05-09 04:29 41.38979 19.59400 16297 ft 404 kts 177°
2026-05-09 04:29 41.36173 19.59811 16808 ft 408 kts 177°
2026-05-09 04:30 41.33338 19.60228 17328 ft 412 kts 177°
2026-05-09 04:30 41.30487 19.60798 17842 ft 419 kts 171°
2026-05-09 04:30 41.27698 19.62056 18358 ft 429 kts 160°
2026-05-09 04:30 41.25087 19.64059 18806 ft 439 kts 148°
2026-05-09 04:31 41.22721 19.66672 19283 ft 444 kts 142°
2026-05-09 04:31 41.20387 19.69367 19800 ft 446 kts 142°
2026-05-09 04:31 41.18034 19.72073 20290 ft 449 kts 142°
2026-05-09 04:31 41.15662 19.74791 20765 ft 451 kts 143°
2026-05-09 04:32 41.13279 19.77519 21229 ft 454 kts 143°
2026-05-09 04:32 41.10882 19.80258 21662 ft 456 kts 143°
2026-05-09 04:32 41.08463 19.83017 22034 ft 460 kts 143°
2026-05-09 04:32 41.06025 19.85794 22406 ft 463 kts 143°
2026-05-09 04:33 41.03570 19.88594 22816 ft 466 kts 143°
2026-05-09 04:33 41.01110 19.91403 23204 ft 469 kts 143°
2026-05-09 04:33 40.98635 19.94227 23599 ft 471 kts 143°
2026-05-09 04:33 40.96158 19.97048 23929 ft 473 kts 143°
2026-05-09 04:34 40.93658 19.99888 24270 ft 475 kts 143°
2026-05-09 04:34 40.91150 20.02732 24640 ft 476 kts 143°
2026-05-09 04:34 40.88632 20.05590 25006 ft 477 kts 143°
2026-05-09 04:34 40.85981 20.08216 25343 ft 475 kts 151°
2026-05-09 04:35 40.83095 20.10309 25688 ft 473 kts 157°
2026-05-09 04:35 40.80147 20.12244 25982 ft 475 kts 158°
2026-05-09 04:35 40.77194 20.14185 26371 ft 475 kts 157°
2026-05-09 04:35 40.74237 20.16131 26796 ft 474 kts 157°
2026-05-09 04:36 40.71289 20.18073 27201 ft 473 kts 156°
2026-05-09 04:36 40.68391 20.19981 27583 ft 471 kts 156°
2026-05-09 04:36 40.65461 20.21910 28049 ft 470 kts 156°
2026-05-09 04:36 40.62547 20.23828 28532 ft 468 kts 156°
2026-05-09 04:37 40.59632 20.25742 29042 ft 467 kts 156°
2026-05-09 04:37 40.56734 20.27638 29491 ft 466 kts 157°
2026-05-09 04:37 40.53826 20.29535 29980 ft 465 kts 157°
2026-05-09 04:37 40.50935 20.31420 30436 ft 464 kts 157°
2026-05-09 04:38 40.48041 20.33298 30835 ft 463 kts 158°
2026-05-09 04:38 40.45144 20.35169 31240 ft 463 kts 158°
2026-05-09 04:38 40.42260 20.37025 31654 ft 462 kts 158°
2026-05-09 04:38 40.39369 20.38886 32076 ft 462 kts 158°
2026-05-09 04:39 40.36484 20.40741 32482 ft 461 kts 158°
2026-05-09 04:39 40.33603 20.42594 32849 ft 462 kts 158°
2026-05-09 04:39 40.30714 20.44454 33039 ft 463 kts 158°
2026-05-09 04:40 40.24833 20.48215 33061 ft 476 kts 159°
2026-05-09 04:40 40.18850 20.52044 33075 ft 479 kts 158°
2026-05-09 04:41 40.12859 20.55882 33076 ft 479 kts 159°
2026-05-09 04:41 40.06857 20.59718 33072 ft 482 kts 159°
2026-05-09 04:42 40.00821 20.63474 33078 ft 482 kts 160°
2026-05-09 04:42 39.94740 20.67146 33082 ft 482 kts 160°
2026-05-09 04:43 39.88701 20.70781 33085 ft 482 kts 160°
2026-05-09 04:43 39.82615 20.74470 33056 ft 483 kts 161°
2026-05-09 04:44 39.76510 20.78179 33061 ft 485 kts 161°
2026-05-09 04:44 39.70440 20.82043 33050 ft 490 kts 154°
2026-05-09 04:45 39.64939 20.87424 33063 ft 497 kts 146°
2026-05-09 04:45 39.59546 20.93055 33046 ft 498 kts 147°
2026-05-09 04:46 39.54121 20.98683 33049 ft 500 kts 148°
2026-05-09 04:46 39.49595 21.03369 33062 ft 502 kts 147°
2026-05-09 04:47 39.44147 21.09014 33072 ft 503 kts 147°
2026-05-09 04:47 39.38684 21.14671 33051 ft 503 kts 147°
2026-05-09 04:48 39.33201 21.20338 33087 ft 506 kts 147°
2026-05-09 04:48 39.27688 21.26009 33094 ft 507 kts 147°
2026-05-09 04:49 39.22172 21.31673 33088 ft 507 kts 147°
2026-05-09 04:49 39.16657 21.37333 33082 ft 507 kts 147°
2026-05-09 04:50 39.11128 21.42993 33101 ft 507 kts 147°
2026-05-09 04:50 39.05590 21.48641 33072 ft 509 kts 148°
2026-05-09 04:51 39.00030 21.54311 33063 ft 510 kts 148°
2026-05-09 04:51 38.94454 21.59989 33069 ft 512 kts 148°
2026-05-09 04:52 38.88871 21.65662 33075 ft 512 kts 148°
2026-05-09 04:52 38.83265 21.71330 33051 ft 513 kts 148°
2026-05-09 04:53 38.77616 21.77029 33080 ft 519 kts 148°
2026-05-09 04:53 38.71983 21.82713 33101 ft 519 kts 148°
2026-05-09 04:54 38.66337 21.88412 33094 ft 519 kts 149°
2026-05-09 04:54 38.60670 21.94116 33091 ft 519 kts 148°
2026-05-09 04:55 38.54985 21.99811 33093 ft 519 kts 148°
2026-05-09 04:55 38.49301 22.05487 33098 ft 519 kts 148°
2026-05-09 04:56 38.43628 22.11146 33087 ft 518 kts 148°
2026-05-09 04:56 38.37948 22.16800 33089 ft 518 kts 149°
2026-05-09 04:57 38.32373 22.22643 33099 ft 524 kts 141°
2026-05-09 04:57 38.27829 22.29995 33077 ft 532 kts 128°
2026-05-09 04:58 38.23625 22.37759 33083 ft 533 kts 129°
2026-05-09 04:58 38.19407 22.45512 33085 ft 533 kts 129°
2026-05-09 04:59 38.15178 22.53253 33097 ft 532 kts 129°
2026-05-09 04:59 38.10991 22.60918 33107 ft 531 kts 129°
2026-05-09 05:00 38.06773 22.68616 33106 ft 531 kts 129°
2026-05-09 05:00 38.02563 22.76307 33102 ft 530 kts 129°
2026-05-09 05:01 37.98350 22.83972 33119 ft 529 kts 129°
2026-05-09 05:01 37.96247 22.87783 32997 ft 527 kts 129°
2026-05-09 05:01 37.94152 22.91614 32087 ft 531 kts 126°
2026-05-09 05:01 37.92335 22.95768 30955 ft 545 kts 116°
2026-05-09 05:02 37.90882 23.00188 30365 ft 538 kts 114°
2026-05-09 05:02 37.89461 23.04527 28845 ft 534 kts 115°
2026-05-09 05:02 37.88024 23.08824 27729 ft 524 kts 115°
2026-05-09 05:02 37.86595 23.13049 26611 ft 524 kts 115°
2026-05-09 05:03 37.85142 23.17324 25317 ft 532 kts 115°
2026-05-09 05:03 37.83676 23.21642 24106 ft 537 kts 115°
2026-05-09 05:03 37.82204 23.25998 23031 ft 537 kts 115°
2026-05-09 05:03 37.80769 23.30272 22024 ft 518 kts 115°
2026-05-09 05:04 37.79454 23.34407 21101 ft 498 kts 109°
2026-05-09 05:04 37.78628 23.38585 20222 ft 485 kts 99°
2026-05-09 05:04 37.78353 23.42827 19338 ft 484 kts 89°
2026-05-09 05:04 37.78632 23.47045 18457 ft 482 kts 78°
2026-05-09 05:05 37.79440 23.51140 17483 ft 477 kts 69°
2026-05-09 05:05 37.80656 23.55009 16610 ft 471 kts 65°
2026-05-09 05:05 37.81895 23.58817 15764 ft 466 kts 65°
2026-05-09 05:05 37.83094 23.62527 14879 ft 446 kts 66°
2026-05-09 05:06 37.84223 23.66035 14119 ft 427 kts 66°
2026-05-09 05:06 37.85328 23.69472 13324 ft 420 kts 66°
2026-05-09 05:06 37.86426 23.72881 12602 ft 417 kts 66°
2026-05-09 05:06 37.87518 23.76274 11887 ft 414 kts 66°
2026-05-09 05:07 37.88597 23.79625 11370 ft 407 kts 67°
2026-05-09 05:07 37.89560 23.82867 11183 ft 378 kts 70°
2026-05-09 05:07 37.90346 23.85914 11050 ft 351 kts 72°
2026-05-09 05:07 37.91024 23.88784 10841 ft 332 kts 73°
2026-05-09 05:08 37.91658 23.91548 10526 ft 325 kts 73°
2026-05-09 05:08 37.92285 23.94281 10293 ft 322 kts 73°
2026-05-09 05:08 37.92918 23.96998 10056 ft 321 kts 72°
2026-05-09 05:08 37.93564 23.99702 9919 ft 321 kts 72°
2026-05-09 05:09 37.94210 24.02375 9798 ft 321 kts 72°
2026-05-09 05:09 37.94863 24.05074 9679 ft 320 kts 72°
2026-05-09 05:09 37.95518 24.07771 9525 ft 320 kts 71°
2026-05-09 05:09 37.96174 24.10465 9337 ft 322 kts 71°
2026-05-09 05:10 37.96834 24.13194 8925 ft 323 kts 72°
2026-05-09 05:10 37.97485 24.15892 8540 ft 318 kts 72°
2026-05-09 05:10 37.98129 24.18565 7968 ft 314 kts 72°
2026-05-09 05:10 37.98946 24.21013 7825 ft 290 kts 50°
2026-05-09 05:11 38.00363 24.22660 7565 ft 268 kts 22°
2026-05-09 05:11 38.02085 24.23287 7123 ft 252 kts 355°
2026-05-09 05:11 38.03755 24.22908 6670 ft 238 kts 331°
2026-05-09 05:11 38.05249 24.22067 6303 ft 235 kts 330°
2026-05-09 05:12 38.06611 24.20998 5970 ft 231 kts 315°
2026-05-09 05:12 38.07843 24.19693 5677 ft 230 kts 316°
2026-05-09 05:12 38.09026 24.18332 5375 ft 226 kts 305°
2026-05-09 05:12 38.09774 24.16649 5105 ft 220 kts 285°
2026-05-09 05:13 38.10026 24.14735 4823 ft 216 kts 274°
2026-05-09 05:13 38.10162 24.12861 4544 ft 216 kts 274°
2026-05-09 05:13 38.10286 24.10971 4259 ft 214 kts 268°
2026-05-09 05:13 38.09908 24.09178 3979 ft 212 kts 240°
2026-05-09 05:14 38.08882 24.07833 3711 ft 214 kts 220°
2026-05-09 05:14 38.07696 24.06701 3449 ft 212 kts 219°
2026-05-09 05:14 38.06517 24.05586 3176 ft 210 kts 219°
2026-05-09 05:14 38.05369 24.04492 2900 ft 201 kts 218°
2026-05-09 05:15 38.04280 24.03452 2676 ft 189 kts 219°
2026-05-09 05:15 38.03275 24.02492 2423 ft 172 kts 218°
2026-05-09 05:15 38.02371 24.01630 2212 ft 152 kts 218°
2026-05-09 05:15 38.01557 24.00852 2006 ft 143 kts 217°
2026-05-09 05:16 38.00773 24.00103 1819 ft 140 kts 216°
2026-05-09 05:16 38.00002 23.99367 1642 ft 137 kts 217°
2026-05-09 05:16 37.99237 23.98637 1450 ft 138 kts 216°
2026-05-09 05:16 37.98473 23.97909 1266 ft 137 kts 217°
2026-05-09 05:17 37.97703 23.97176 1084 ft 140 kts 217°
2026-05-09 05:17 37.96919 23.96435 906 ft 141 kts 217°
2026-05-09 05:17 37.96124 23.95682 688 ft 144 kts 217°
2026-05-09 05:17 37.95321 23.94925 529 ft 144 kts 217°
2026-05-09 05:18 37.94533 23.94142 328 ft 143 kts 217°
2026-05-09 05:18 37.93781 23.93450 292 ft 117 kts 217°
2026-05-09 05:18 37.93273 23.92953 289 ft 68 kts 218°
2026-05-09 05:18 37.93100 23.92832 294 ft 7 kts 168°
2026-05-09 05:19 37.93064 23.92839 295 ft 5 kts 171°
2026-05-09 05:19 37.93026 23.92838 296 ft 6 kts 187°
2026-05-09 05:19 37.92982 23.92831 297 ft 7 kts 187°
2026-05-09 05:19 37.92938 23.92856 300 ft 8 kts 126°
2026-05-09 05:20 37.92960 23.92937 299 ft 14 kts 38°
2026-05-09 05:20 37.93063 23.93031 302 ft 22 kts 36°
2026-05-09 05:20 37.93196 23.93162 300 ft 26 kts 36°
2026-05-09 05:20 37.93343 23.93300 303 ft 26 kts 36°
2026-05-09 05:21 37.93425 23.93435 303 ft 18 kts 110°
2026-05-09 05:21 37.93347 23.93577 301 ft 22 kts 126°
2026-05-09 05:21 37.93247 23.93749 301 ft 27 kts 126°
2026-05-09 05:21 37.93128 23.93949 303 ft 29 kts 128°
2026-05-09 05:22 37.93007 23.94150 301 ft 26 kts 127°
2026-05-09 05:22 37.92907 23.94321 301 ft 22 kts 127°
2026-05-09 05:22 37.92926 23.94452 301 ft 19 kts 37°
2026-05-09 05:22 37.93049 23.94562 301 ft 24 kts 36°
2026-05-09 05:23 37.93194 23.94697 301 ft 28 kts 36°
2026-05-09 05:23 37.93338 23.94841 302 ft 23 kts 37°
2026-05-09 05:23 37.93443 23.94864 301 ft 16 kts 322°
2026-05-09 05:23 37.93542 23.94825 301 ft 16 kts 305°
2026-05-09 05:24 37.93563 23.94790 301 ft 0 kts 308°